SCP
1 1 1 1 2 2 2 2 2 1 1 1 1 1 1 0 0 0 0 0 0 0 0 0 0 0 0 0 0 0 0 0 0 0 1 1 1 1
1 1 1 1 2 2 2 2 2 1 1 1 1 1 0 0 0 0 0 0 0 0 0 0 0 0 0 0 0 0 0 0 0 0 0 0 0 0
1 1 1 2 2 2 2 2 2 1 1 1 1 1 0 0 0 0 0 0 0 0 0 0 0 0 0 0 0 0 0 0 0 0 0 0 0 0
1 1 1 2 2 2 2 2 2 1 1 1 1 0 0 0 0 0 0 0 0 0 0 0 0 0 0 0 0 0 0 0 0 0 0 0 0 0
1 1 1 2 2 2 2 2 1 1 1 1 1 0 0 0 0 0 0 0 0 0 0 0 0 0 0 0 0 0 0 0 0 0 0 0 0 0
1 1 1 2 2 2 1 1 1 1 1 1 0 0 0 0 0 0 0 0 0 0 0 0 0 0 0 0 0 0 0 0 0 0 0 0 0 0
1 1 2 2 1 1 1 1 1 1 1 1 1 0 0 0 0 0 0 0 0 0 0 0 0 1 1 1 0 0 0 0 0 0 0 0 0 0
2 2 2 2 1 1 1 1 1 1 1 1 1 1 1 1 1 1 1 1 1 1 0 0 1 1 2 2 1 0 0 0 0 0 0 0 0 0
2 2 2 2 2 2 2 2 1 1 2 2 2 1 2 2 2 2 1 1 1 1 1 1 1 1 2 2 1 0 0 0 0 0 0 0 0 0
2 2 2 2 2 2 3 3 2 2 2 2 2 2 2 2 3 3 3 2 2 2 1 1 1 1 2 2 1 0 0 0 0 0 0 0 0 0
2 2 2 2 2 2 3 3 3 3 2 2 2 2 2 2 2 3 3 3 3 3 2 2 1 1 2 2 1 1 0 0 0 0 0 0 0 0
2 2 2 2 1 1 2 3 3 3 3 3 3 2 2 2 2 2 3 4 4 4 3 2 2 2 2 2 1 1 1 1 0 0 0 0 0 0
2 2 2 1 1 0 1 2 2 3 4 4 3 3 3 4 3 3 3 4 5 5 4 3 3 2 2 3 2 2 2 1 1 1 0 0 0 0
2 2 1 1 0 0 0 1 1 1 2 3 3 3 4 5 5 5 4 4 4 4 4 4 3 3 3 3 3 3 3 2 2 1 1 0 0 0
2 2 1 0 0 0 0 0 0 0 1 2 2 3 3 4 4 5 4 4 4 3 3 3 3 3 3 4 4 4 3 2 2 1 1 0 0 0
1 1 1 0 0 0 0 0 0 0 1 1 2 2 2 3 3 3 4 4 3 3 2 2 2 3 3 4 4 4 3 2 1 1 1 0 0 0
1 1 1 1 1 1 1 1 1 0 1 1 1 2 2 2 2 3 3 3 3 3 3 2 2 2 2 3 3 2 1 1 1 1 0 0 0 0
0 1 1 1 1 1 1 1 1 1 1 1 1 1 2 2 2 3 3 3 2 2 2 2 2 1 1 1 1 1 1 1 1 0 0 0 0 1
0 1 1 2 2 2 2 2 2 2 1 1 1 2 2 2 3 3 3 2 2 2 2 2 1 1 1 1 1 1 0 1 1 0 0 0 0 0
0 0 1 2 2 2 2 2 2 2 2 2 2 2 3 3 3 3 2 1 1 1 1 1 1 1 2 2 2 1 1 0 1 1 0 0 0 0
0 0 1 2 3 3 3 2 2 2 2 2 2 2 2 2 2 1 1 0 0 0 0 0 1 1 1 2 2 2 1 1 1 1 1 1 0 0
0 0 1 2 3 4 3 3 2 2 1 1 1 1 1 1 1 1 0 0 0 0 0 0 0 0 1 1 1 1 1 1 1 0 0 0 0 0
0 0 1 2 3 4 3 3 2 2 1 1 1 1 1 1 1 1 0 0 0 0 0 0 0 0 0 0 1 1 1 1 1 0 0 0 0 0
Wind_Speed
2 2 2 1 2 2 2 3 3 2 2 1 1 1 1 1 0 1 1 2 3 2 3 2 2 2 2 2 3 4 4 4 4 4 3 3 3 3
2 2 2 1 1 2 2 2 2 3 2 1 1 1 1 1 1 1 1 3 2 2 2 3 3 3 3 3 3 3 3 4 4 4 3 3 3 3
2 2 2 2 2 2 2 2 2 2 2 1 1 1 1 1 1 1 1 1 1 2 2 2 2 3 3 3 3 3 3 3 3 3 3 3 3 2
3 3 3 2 2 2 2 2 2 3 3 2 1 1 1 1 1 1 1 1 1 2 2 2 2 3 3 3 3 3 3 2 2 2 2 2 2 2
3 4 4 3 3 2 2 3 2 2 2 3 2 1 1 1 1 1 1 0 1 1 1 2 2 3 3 3 3 3 2 2 2 2 2 1 1 1
3 3 4 4 4 4 3 3 3 3 3 2 2 1 1 1 2 2 1 1 1 1 1 1 2 2 2 2 2 2 1 1 1 1 1 1 1 0
2 2 3 4 5 4 4 4 4 3 3 3 2 2 2 2 3 2 2 1 1 1 1 1 1 1 1 2 2 1 1 0 0 1 0 0 0 0
2 2 2 3 4 5 5 6 6 5 5 4 3 4 4 4 3 3 3 2 2 2 2 2 1 2 2 2 2 2 2 1 1 1 1 1 1 1
3 3 2 2 3 3 3 4 5 6 7 6 6 6 5 6 6 5 5 4 3 2 2 2 2 3 2 2 3 3 3 3 2 2 2 2 2 2
3 4 3 3 3 3 3 3 3 4 6 5 6 6 5 5 7 6 5 3 1 2 3 2 2 2 2 3 4 4 4 4 3 3 2 3 3 3
3 3 4 4 4 4 4 4 3 3 3 5 5 4 5 5 5 4 4 3 2 2 3 2 2 2 2 3 3 5 5 5 4 4 3 3 3 3
3 3 5 5 5 6 5 5 5 4 3 2 2 3 4 5 7 6 5 4 2 2 3 3 2 2 2 2 2 3 3 4 5 5 4 4 3 3
3 3 4 5 6 7 6 6 7 5 3 3 3 2 2 3 4 4 5 5 4 3 3 4 2 2 2 2 2 2 3 2 3 3 4 5 5 4
4 3 4 6 6 6 5 5 6 4 3 3 3 3 3 3 3 4 5 5 5 4 4 5 3 4 3 2 2 2 2 2 2 3 3 3 5 5
4 5 5 6 6 5 6 6 5 4 3 4 4 4 3 3 3 2 3 3 3 3 4 5 4 3 3 3 3 2 2 3 3 3 3 3 3 3
4 4 4 5 4 4 4 4 4 4 4 4 4 3 3 3 3 3 3 2 2 2 3 4 4 5 4 4 3 3 3 3 3 3 3 3 3 4
2 1 2 2 2 2 3 3 4 4 4 4 4 4 3 3 3 3 3 3 3 3 3 2 2 3 4 4 4 4 4 3 3 3 3 3 4 4
4 3 4 4 4 4 4 4 4 4 5 4 4 4 4 4 4 3 3 4 4 4 4 3 2 2 2 3 6 5 4 4 3 3 3 4 4 4
4 4 4 5 5 5 5 5 5 4 4 4 5 5 5 5 4 4 4 4 4 4 4 3 3 3 4 4 4 7 5 4 3 4 4 4 5 5
4 5 5 5 5 5 5 5 4 4 4 4 4 4 4 4 4 5 5 5 5 4 4 4 4 5 6 5 4 4 8 6 4 5 4 3 4 4
5 5 5 5 5 4 4 4 5 4 4 4 4 5 4 4 5 5 5 6 5 5 5 5 5 6 4 2 3 4 4 7 7 5 4 4 3 3
5 5 5 5 5 4 4 4 4 4 5 5 5 5 4 5 5 6 5 5 5 5 6 4 3 3 4 5 6 6 5 3 5 8 7 6 4 4
5 5 5 5 5 4 4 5 5 5 5 5 5 5 5 5 5 5 6 6 5 6 5 4 3 4 5 6 6 5 6 5 3 3 4 6 8 9
Wind_Direction
188 184 188 193 181 182 174 170 167 191 234 235 225 237 208 190 180 158 150 116 111 104 104 105 100 92 75 59 71 70 65 59 56 54 47 43 49 51
195 187 195 198 189 183 184 183 183 178 202 219 215 214 192 164 113 132 114 97 102 108 112 106 100 96 86 74 74 71 71 68 65 63 59 51 46 48
206 198 214 197 193 193 178 176 177 171 186 231 210 168 160 162 116 118 116 107 109 106 103 104 105 102 97 88 78 73 77 75 69 65 62 59 57 62
210 205 218 200 195 195 186 189 192 189 183 200 210 173 179 178 150 142 121 114 122 102 107 114 125 111 99 93 89 83 79 78 72 64 60 60 62 67
215 214 218 198 203 197 192 195 195 188 182 180 199 197 188 159 136 129 132 112 127 128 136 148 139 127 118 115 105 94 86 76 58 46 41 44 66 77
225 221 218 208 204 195 195 191 178 163 154 162 171 185 195 170 166 178 192 204 208 162 129 132 138 145 139 133 128 121 103 78 53 35 27 24 50 89
230 228 222 208 198 195 192 184 171 166 165 172 183 195 203 189 197 196 202 214 227 193 209 212 190 196 188 185 183 180 172 181 357 14 16 310 221 208
221 234 228 208 198 198 195 188 180 179 186 190 203 210 218 211 199 192 185 190 224 198 201 229 205 221 224 217 210 209 217 221 226 245 249 229 219 215
214 214 221 214 190 191 187 191 205 208 197 195 206 217 212 205 191 192 196 202 214 190 182 222 218 237 240 230 222 223 227 230 226 232 241 233 224 225
222 214 213 216 209 191 191 201 220 229 220 212 218 222 216 204 195 195 194 190 198 188 182 217 221 241 252 240 225 224 227 229 228 232 241 232 220 218
228 218 209 212 208 186 185 203 224 245 236 219 223 221 206 190 178 166 172 183 214 212 186 208 217 232 243 239 233 224 223 225 228 228 229 225 217 212
232 229 218 215 208 194 197 203 218 232 223 215 220 231 218 195 182 189 191 193 203 222 188 193 197 189 236 232 233 230 228 230 231 231 225 220 211 210
226 231 232 216 211 208 207 212 216 212 207 206 213 216 210 203 197 200 200 199 202 220 184 178 187 191 215 244 240 231 229 235 227 231 227 220 211 204
227 230 230 219 215 212 210 216 210 196 197 200 210 216 214 213 210 208 209 213 220 221 193 177 183 191 195 222 246 240 237 238 230 232 233 224 218 213
232 227 226 220 215 213 215 212 203 199 198 207 220 227 223 216 204 204 211 215 227 226 197 197 196 193 203 221 231 231 236 235 224 231 229 222 222 215
239 233 221 211 211 217 213 213 211 209 207 217 221 221 205 201 206 201 205 204 219 234 222 212 208 200 215 227 226 232 225 222 218 227 236 234 228 222
197 201 211 214 227 232 229 221 214 210 214 217 216 214 211 212 215 205 198 195 215 229 228 216 220 223 225 220 230 235 231 231 226 211 217 238 236 228
179 205 218 223 226 226 227 226 220 219 219 216 216 217 215 215 214 207 204 211 224 230 231 219 201 202 220 236 223 234 234 237 233 214 213 230 247 237
200 220 224 225 227 226 225 222 224 223 218 216 219 219 216 216 215 215 214 223 233 234 231 213 203 207 229 250 232 210 224 231 222 219 218 225 245 249
222 224 228 229 229 227 226 226 224 219 214 217 217 217 215 215 218 220 219 221 227 230 231 219 213 216 227 244 253 238 215 218 221 230 233 237 252 261
229 230 229 229 230 230 230 227 221 218 217 217 219 218 217 218 222 223 223 221 222 225 230 233 232 223 230 226 242 249 234 218 219 224 225 230 246 252
231 234 233 229 227 226 227 227 228 223 220 222 222 218 215 216 222 224 223 224 227 231 239 243 217 201 215 229 242 251 255 242 230 228 226 221 222 233
233 232 230 228 229 224 223 225 227 228 224 225 223 220 218 219 223 224 223 225 229 232 236 237 224 218 225 233 244 250 251 247 240 233 238 238 240 250